Погода в Казачинске

Погода в Казачинске : погода сейчас, прогноз погоды и архив. Всё, что Вы хотите узнать о погоде в Казачинске!

Хотите узнать прогноз погоды в Казачинске? Тогда Вам сюда: Погода в Казачинске

Поиск расширенной информации на нашем сайте:

Другие новости

Новости СМИ2

Главная страница сайта

Новости сайта

03.07.2017

Напоминаем, что на нашем специализированном сайте Метеоцентр.Азия вы можете получить высокодетализированные автоматические прогнозы погоды по пунктам России, СНГ и мира в авиационном формате (включающие направление и скорость ветра, видимость, явления погоды, количество и форму облачности, нижнюю и верхнюю границу облачности).

Рекомендуем: Только отдых в тунисе можно назвать полноценным отдыхом души и тела.

Погода в Казачинске - сегодня

Время (UTC), дата Ветер
(°,м/с) 
Видим.   Явления Облачность Т
(°С)
Тd
(°С)
f(%) Тe
(°С)
Pmin
(гПа)
dP
(гПа)
Po
(мм)
O2
(г/м3)
Тmin Tmax R s Состояние
почвы
09 21.02.18 200 (Ю) 10 км  слаб. ливневой снег  10/6 600 м кучево-дожд., верхняя 
[Cb cap|Cs]
-12.7 -16.4 74 -15  1022.7  -0.8  732  311           
12 21.02.18 тихо ()   н/о  слаб. ливневой снег  10/3 600 м кучево-дожд., верхняя 
[Cb cap|Cs]
-15.8 -18.3 81 -16  1023.5  0.2  732  315    -12.5  0.8     
15 21.02.18 тихо ()   н/о  слаб. ливневой снег  10/3 600 м кучево-дожд., верхняя 
[Cb cap|Cs]
-18.8 -21.5 79 -19  1023.7  -0.3  732  318           
18 21.02.18 тихо ()   н/о  {ливн. осадки}  9/0 верхняя 
[Ci fib]
-25.9 -28.4 79 -26  1024.6  -0.5  732  327           
21 21.02.18 тихо ()   н/о    8/0 верхняя 
[Ci fib]
-29.3 -31.8 79 -29  1025.5  0.2  732  332           
00 22.02.18 тихо ()   20000 м    9/0 верхняя 
[Ci fib]
-31.4 -33.6 81 -31  1026.8  0.8  732  335  -31.7    0.5  78  равномерный
сухой снег
100% 
03 22.02.18 070 (В) 20000 м    3/0 верхняя 
[Ci fib]
-26.5 -29 79 -27  1026.4  0.6  733  329           
06 22.02.18 тихо ()   20000 м    3/3 1000 м 
[Cu hum]
-15.8 -22.7 55 -16  1023.9  -0.4  733  315           
09 22.02.18 тихо ()   20000 м    3/3 600 м кучево-дожд. 
[Cb cap]
-16.3 -21.4 65 -16  1024.5  0.5  733  316           
12 22.02.18 тихо ()   н/о    ясно 
-25.6 -27.5 84 -26  1027.9  1.4  734  328    -12.7       
15 22.02.18 260 (З) н/о    ясно 
-29.2 -31.6 80 -30  1029.6  735  333           
18 22.02.18 250 (З) н/о    ясно 
-31.8 -34.1 80 -36  1031.1  0.9  735  337           
21 22.02.18 250 (З) н/о    ясно 
-34.4 -37.4 74 -35  1032.3  0.6  736  341           
00 23.02.18 250 (З) 20000 м    ясно 
-35.7 -38.1 78 -40  1033.3  0.7  736  343  -35.8      78  равномерный
сухой снег
100% 
03 23.02.18 тихо ()   20000 м    1/0 верхняя 
[Ci fib]
-24.5 -27.9 73 -25  1031.2  0.2  737  328  -36.5         
06 23.02.18 100 (В) 20000 м    ясно 
-18.1 -24.7 56 -18  1027.8  -2  735  319           
09 23.02.18 200 (Ю) 20000 м    3/0 верхняя 
[Ci fib]
-11.7 -20.7 47 -16  1025.2  -1.3  734  311           
12 23.02.18 260 (З) н/о    9/0 верхняя 
[Ci fib]
-22.5 -26.1 72 -25  1027.2  -0.1  734  324    -11.4       
15 23.02.18 тихо ()   н/о  слаб. ливневой снег  10/6 600 м кучево-дожд., верхняя 
[Cb cap|Cs]
-21.6 -24.8 75 -22  1027.1  0.1  734  323           
18 23.02.18 тихо ()   н/о  слаб. ливневой снег  10/10 600 м кучево-дожд. 
[Cb cap]
-19.9 -23 76 -20  1026.6  -0.2  734  321           
21 23.02.18 250 (З) н/о  слаб. ливневой снег  10/5 600 м кучево-дожд., верхняя 
[Cb cap|Cs]
-22 -25.2 75 -22  1027.2  0.2  734  323           
00 24.02.18 220 (ЮЗ) 10 км  слаб. ливневой снег  10/8 600 м кучево-дожд., верхняя 
[Cb cap|Cs]
-19.7 -22.8 76 -20  1027.4  0.6  734  321  -24.6    0.8  78  равномерный
сухой снег
100% 
03 24.02.18 тихо ()   20000 м  в посл. час ливневой снег  9/3 600 м кучево-дожд., верхняя 
[Cb cap|Ci fib]
-11 -17 61 -11  1025.6  -0.1  734  310           
06 24.02.18 190 (Ю) 20000 м  {ливн. осадки}  9/5 600 м кучево-дожд., верхняя 
[Cb cap|Ci fib]
-8.5 -15.5 57 -10  1023.9  -1.2  734  306           
09 24.02.18 190 (Ю) 20000 м    9/4 600 м кучево-дожд., верхняя 
[Cb cap|Ci fib]
-9.2 -14.2 67 -11  1023.6  -0.4  733  307           
Время (UTC), дата Ветер
(°,м/с) 
Видим.   Явления Облачность Т
(°С)
Тd
(°С)
f(%) Тe
(°С)
Pmin
(гПа)
dP
(гПа)
Po
(мм)
O2
(г/м3)
Тmin Tmax R s Состояние
почвы

Для получения пояснительной информации подведите курсор к названию столбца.

ПОГОДА в Казачинске - архив

Всё, что Вы хотите узнать о погоде в Казачинске - удобно и подробно!

Выберите нужную дату (начиная с 1 января 2015* года) и нажмите кнопку "Найти".
Будут отображены архивные сводки погоды по пункту Казачинск, начиная с указанной даты.


Отображать данные в формате CSV (для использования в таблицах Excel)


Внимание! Наш архив погоды предназначен исключительно для личного некоммерческого использования в познавательных целях. Если Вам необходимы официальные справки о состоянии погоды (для производственных, юридических, коммерческих и т.п. целей), обращайтесь в органы Росгидромета.

*Примечание: данная дата относится к архиву по метеостанциям СССР (Россия, СНГ, Балтия).
Архив по метеостанциям Зарубежной Европы и Азии (кроме Китая) хранится 10 дней, по другим регионам земного шара (Китай, Африка, Америка, Австралия, Океания) - 1 день.

Казачинск - район местоположения метеостанции


Название, широта, долгота, высота метеостанции:
Казачинск 56.3°ш. 107.6°д. 362 м над ур. моря [Российская Федерация]

Дополнительная информация

В oтличие oт бoльшинства пoгoдных сайтoв мы публикуем пoдрoбную метеoинфoрмацию в детальнoм прoфессиoнальнoм фoрмате.

Характеристики температуры и влажнoсти вoздуха измеряются на высoте 2 м в тени вдали oт зданий и деревьев.
Скoрoсть ветра измеряется на высoте 10 м (на урoвне рoста челoвека скoрoсть ветра ниже в 1.5-2 раза). Если метеoстанция нахoдится в гoрoде или в лесу, тo скoрoсть ветра занижена на 2-4 м/с пo сравнению с oткрытым местoм. Скoрoсть ветра над акватoриями крупных рек и oзёр, а также на вершинах хoлмoв на 2-5 м/с выше, чем в oбычных услoвиях.
Атмoсфернoе давление в разных тoчках местнoсти мoжет значительнo oтличаться oт давления на метеoстанции, в зависимoсти oт услoвий рельефа (при пoдъёме на 10 м давление пoнижается примернo на 1 мм рт.ст.).